| time (UTC) | temp F | wind direction | speed MPH | gust MPH | rain 1hr in | rain 24hr in | rain mn in | humidity % | barometer mb |
| 20260506043035 | 56 | 115 | 1.0 | 3.0 | 0.00 | 0.00 | 0.00 | 77 | 1014.4 |
| 20260506041536 | 57 | 60 | 1.0 | 5.0 | 0.00 | 0.00 | 0.00 | 76 | 1014.4 |
| 20260506040042 | 58 | 12 | 0.0 | 4.0 | 0.00 | 0.00 | 0.00 | 73 | 1014.0 |
| 20260506034610 | 60 | 15 | 3.0 | 7.0 | 0.00 | 0.00 | 0.00 | 70 | 1013.7 |
| 20260506033029 | 61 | 46 | 3.0 | 5.0 | 0.00 | 0.00 | 0.00 | 67 | 1013.5 |
| 20260506031643 | 64 | 38 | 4.0 | 7.0 | 0.00 | 0.00 | 0.00 | 64 | 1013.2 |
| 20260506030032 | 66 | 22 | 4.0 | 8.0 | 0.00 | 0.00 | 0.00 | 60 | 1013.0 |
| 20260506024609 | 68 | 36 | 4.0 | 9.0 | 0.00 | 0.00 | 0.00 | 59 | 1012.8 |
| 20260506023034 | 69 | 16 | 4.0 | 8.0 | 0.00 | 0.00 | 0.00 | 58 | 1012.8 |
| 20260506020035 | 71 | 348 | 6.0 | 13.0 | 0.00 | 0.00 | 0.00 | 56 | 1012.5 |
| 20260506014642 | 72 | 343 | 7.0 | 13.0 | 0.00 | 0.00 | 0.00 | 54 | 1012.4 |
| 20260506013034 | 73 | 343 | 6.0 | 12.0 | 0.00 | 0.00 | 0.00 | 53 | 1012.3 |
| 20260506011536 | 74 | 320 | 6.0 | 13.0 | 0.00 | 0.00 | 0.00 | 51 | 1012.2 |
| 20260506004535 | 75 | 302 | 3.0 | 10.0 | 0.00 | 0.00 | 0.00 | 51 | 1012.2 |
| 20260506000036 | 76 | 322 | 5.0 | 12.0 | 0.00 | 0.00 | 0.00 | 51 | 1012.3 |
| 20260505234535 | 77 | 333 | 6.0 | 13.0 | 0.00 | 0.00 | 0.00 | 51 | 1012.3 |
| 20260505233037 | 77 | 357 | 7.0 | 13.0 | 0.00 | 0.00 | 0.00 | 51 | 1012.3 |
| 20260505231536 | 77 | 358 | 7.0 | 12.0 | 0.00 | 0.00 | 0.00 | 50 | 1012.3 |
| 20260505230036 | 77 | 357 | 5.0 | 13.0 | 0.00 | 0.00 | 0.00 | 50 | 1012.5 |
| 20260505224608 | 78 | 32 | 8.0 | 13.0 | 0.00 | 0.00 | 0.00 | 51 | 1012.6 |
| 20260505223035 | 77 | 31 | 7.0 | 12.0 | 0.00 | 0.00 | 0.00 | 51 | 1012.7 |
| 20260505221536 | 76 | 28 | 8.0 | 13.0 | 0.00 | 0.00 | 0.00 | 51 | 1012.8 |
| 20260505220033 | 76 | 10 | 8.0 | 13.0 | 0.00 | 0.00 | 0.00 | 51 | 1012.9 |
| 20260505214605 | 75 | 10 | 6.0 | 12.0 | 0.00 | 0.00 | 0.00 | 52 | 1013.0 |
| 20260505213034 | 75 | 12 | 8.0 | 13.0 | 0.00 | 0.00 | 0.00 | 52 | 1013.1 |
| 20260505211535 | 75 | 4 | 7.0 | 15.0 | 0.00 | 0.00 | 0.00 | 52 | 1013.2 |
| 20260505210036 | 74 | 23 | 8.0 | 13.0 | 0.00 | 0.00 | 0.00 | 52 | 1013.3 |
| 20260505204531 | 74 | 24 | 7.0 | 11.0 | 0.00 | 0.00 | 0.00 | 53 | 1013.4 |
| 20260505203037 | 73 | 356 | 5.0 | 10.0 | 0.00 | 0.00 | 0.00 | 52 | 1013.6 |
| 20260505201641 | 73 | 13 | 7.0 | 11.0 | 0.00 | 0.00 | 0.00 | 54 | 1013.6 |
| 20260505194534 | 72 | 4 | 6.0 | 10.0 | 0.00 | 0.00 | 0.00 | 54 | 1013.7 |
| 20260505191537 | 71 | 10 | 5.0 | 8.0 | 0.00 | 0.00 | 0.00 | 53 | 1013.9 |
| 20260505190036 | 71 | 12 | 4.0 | 9.0 | 0.00 | 0.00 | 0.00 | 53 | 1014.0 |
| 20260505183141 | 70 | 3 | 5.0 | 12.0 | 0.00 | 0.00 | 0.00 | 55 | 1014.0 |
| 20260505181608 | 69 | 294 | 4.0 | 11.0 | 0.00 | 0.00 | 0.00 | 55 | 1014.1 |
| 20260505180037 | 68 | 285 | 4.0 | 9.0 | 0.00 | 0.00 | 0.00 | 56 | 1014.1 |
| 20260505174532 | 67 | 291 | 7.0 | 13.0 | 0.00 | 0.00 | 0.00 | 57 | 1014.0 |
| 20260505173029 | 66 | 294 | 6.0 | 11.0 | 0.00 | 0.00 | 0.00 | 58 | 1014.0 |
| 20260505171535 | 67 | 294 | 5.0 | 11.0 | 0.00 | 0.00 | 0.00 | 57 | 1014.0 |
| 20260505164644 | 65 | 243 | 2.0 | 6.0 | 0.00 | 0.00 | 0.00 | 59 | 1013.9 |
| 20260505163036 | 65 | 315 | 3.0 | 7.0 | 0.00 | 0.00 | 0.00 | 60 | 1013.9 |
| 20260505161535 | 65 | 332 | 2.0 | 7.0 | 0.00 | 0.00 | 0.00 | 61 | 1013.9 |
| 20260505153033 | 61 | 38 | 1.0 | 4.0 | 0.00 | 0.00 | 0.00 | 68 | 1014.0 |
| 20260505151644 | 60 | 85 | 0.0 | 3.0 | 0.00 | 0.00 | 0.00 | 72 | 1014.0 |
| 20260505124535 | 47 | 163 | 3.0 | 5.0 | 0.00 | 0.00 | 0.00 | 89 | 1013.1 |
| 20260505123033 | 47 | 174 | 3.0 | 6.0 | 0.00 | 0.00 | 0.00 | 89 | 1013.1 |
| 20260505121532 | 47 | 162 | 4.0 | 5.0 | 0.00 | 0.00 | 0.00 | 89 | 1013.0 |
| 20260505114535 | 48 | 187 | 2.0 | 4.0 | 0.00 | 0.00 | 0.00 | 88 | 1012.9 |
| 20260505113107 | 48 | 176 | 3.0 | 5.0 | 0.00 | 0.00 | 0.00 | 88 | 1012.9 |
| 20260505111611 | 48 | 164 | 4.0 | 7.0 | 0.00 | 0.00 | 0.00 | 86 | 1012.8 |
| 20260505101533 | 51 | 151 | 3.0 | 6.0 | 0.00 | 0.00 | 0.00 | 80 | 1012.5 |
| 20260505100044 | 52 | 153 | 3.0 | 5.0 | 0.00 | 0.00 | 0.00 | 77 | 1012.5 |
| 20260505093031 | 54 | 151 | 1.0 | 3.0 | 0.00 | 0.00 | 0.00 | 75 | 1012.4 |
| 20260505090035 | 58 | 150 | 1.0 | 5.0 | 0.00 | 0.00 | 0.00 | 70 | 1012.2 |
| 20260505084606 | 59 | 199 | 3.0 | 7.0 | 0.00 | 0.00 | 0.00 | 69 | 1012.2 |
| 20260505083034 | 60 | 186 | 3.0 | 6.0 | 0.00 | 0.00 | 0.00 | 69 | 1012.2 |
| 20260505081535 | 61 | 212 | 5.0 | 17.0 | 0.00 | 0.00 | 0.00 | 68 | 1012.1 |
| 20260505080036 | 62 | 204 | 5.0 | 14.0 | 0.00 | 0.00 | 0.00 | 68 | 1012.1 |
| 20260505074535 | 62 | 226 | 5.0 | 9.0 | 0.00 | 0.00 | 0.00 | 69 | 1012.0 |
| 20260505071645 | 60 | 213 | 2.0 | 7.0 | 0.00 | 0.00 | 0.00 | 71 | 1011.9 |
| 20260505070036 | 62 | 204 | 2.0 | 9.0 | 0.00 | 0.00 | 0.00 | 69 | 1011.8 |
| 20260505064534 | 62 | 185 | 4.0 | 10.0 | 0.00 | 0.00 | 0.00 | 69 | 1011.8 |
| 20260505061538 | 62 | 200 | 3.0 | 8.0 | 0.00 | 0.00 | 0.00 | 68 | 1011.8 |
| 20260505060035 | 61 | 200 | 2.0 | 9.0 | 0.00 | 0.00 | 0.00 | 69 | 1011.8 |
| 20260505054536 | 61 | 209 | 2.0 | 6.0 | 0.00 | 0.00 | 0.00 | 68 | 1011.8 |
| 20260505050142 | 64 | 221 | 4.0 | 11.0 | 0.00 | 0.00 | 0.00 | 60 | 1011.6 |